When you browse on this site, cookies collect data to enhance your experience and personalize the content and advertising you see.
Visit our Privacy Policy to learn more. By continuing to use the site, you agree to this use of cookies and data.

Meteo pe oră la Dzierzaniny

Astăzi, 24 Septembrie, Joi

Timp Temperatura Precipitaţii Vânt Presiune Umiditate
00:00 +14°C° 0 mm 2 m/s 720 mmHg 77%
01:00 +14°C° 0 mm 1 m/s 720 mmHg 78%
02:00 +14°C° 0 mm 1 m/s 720 mmHg 78%
03:00 +14°C° 0 mm 1 m/s 720 mmHg 78%
04:00 +14°C° 0 mm 1 m/s 720 mmHg 78%
05:00 +15°C° 0 mm 2 m/s 720 mmHg 77%
06:00 +15°C° 0 mm 2 m/s 720 mmHg 75%
07:00 +16°C° 0 mm 2 m/s 720 mmHg 74%
08:00 +18°C° 0 mm 2 m/s 720 mmHg 67%
09:00 +20°C° 0 mm 2 m/s 721 mmHg 60%
10:00 +23°C° 0 mm 2 m/s 721 mmHg 53%
11:00 +24°C° 0.1 mm 2 m/s 721 mmHg 51%
12:00 +25°C° 0.1 mm 1 m/s 721 mmHg 49%
13:00 +25°C° 0.1 mm 1 m/s 721 mmHg 46%
14:00 +24°C° 0.4 mm 1 m/s 721 mmHg 54%
15:00 +23°C° 0.4 mm 2 m/s 720 mmHg 62%
16:00 +21°C° 0.4 mm 2 m/s 720 mmHg 69%
17:00 +21°C° 0.2 mm 1 m/s 720 mmHg 74%
18:00 +19°C° 0.2 mm 1 m/s 720 mmHg 79%
19:00 +16°C° 0.2 mm 1 m/s 720 mmHg 84%
20:00 +16°C° 0 mm 1 m/s 720 mmHg 85%
21:00 +16°C° 0 mm 1 m/s 720 mmHg 86%
22:00 +15°C° 0 mm 1 m/s 720 mmHg 87%
23:00 +15°C° 0 mm 1 m/s 720 mmHg 87%

Mâine, 25 Septembrie, Vineri

Timp Temperatura Precipitaţii Vânt Presiune Umiditate
00:00 +15°C° 0 mm 1 m/s 719 mmHg 88%
01:00 +14°C° 0 mm 1 m/s 719 mmHg 89%
02:00 +14°C° 0 mm 1 m/s 719 mmHg 90%
03:00 +14°C° 0 mm 2 m/s 718 mmHg 91%
04:00 +13°C° 0 mm 2 m/s 717 mmHg 91%
05:00 +14°C° 0 mm 2 m/s 717 mmHg 89%
06:00 +14°C° 0 mm 3 m/s 717 mmHg 87%
07:00 +14°C° 0 mm 3 m/s 716 mmHg 84%
08:00 +17°C° 0 mm 4 m/s 716 mmHg 77%
09:00 +19°C° 0 mm 5 m/s 716 mmHg 70%
10:00 +21°C° 0 mm 6 m/s 716 mmHg 62%
11:00 +22°C° 0 mm 6 m/s 716 mmHg 59%
12:00 +22°C° 0 mm 6 m/s 715 mmHg 55%
13:00 +23°C° 0 mm 6 m/s 715 mmHg 52%
14:00 +22°C° 0 mm 5 m/s 714 mmHg 54%
15:00 +22°C° 0 mm 5 m/s 714 mmHg 57%
16:00 +21°C° 0 mm 5 m/s 713 mmHg 59%
17:00 +20°C° 0.1 mm 4 m/s 713 mmHg 65%
18:00 +19°C° 0.1 mm 4 m/s 713 mmHg 70%
19:00 +17°C° 0.1 mm 3 m/s 713 mmHg 75%
20:00 +17°C° 0 mm 3 m/s 713 mmHg 79%
21:00 +16°C° 0 mm 2 m/s 713 mmHg 83%
22:00 +15°C° 0 mm 2 m/s 712 mmHg 87%
23:00 +15°C° 0.1 mm 2 m/s 712 mmHg 89%

Poimâine, 26 Septembrie, Sâmbătă

Timp Temperatura Precipitaţii Vânt Presiune Umiditate
00:00 +15°C° 0.1 mm 2 m/s 712 mmHg 91%
01:00 +14°C° 0.1 mm 1 m/s 711 mmHg 94%
02:00 +14°C° 0.2 mm 2 m/s 711 mmHg 94%
03:00 +15°C° 0.2 mm 2 m/s 711 mmHg 94%
04:00 +15°C° 0.2 mm 2 m/s 710 mmHg 95%
05:00 +14°C° 0.1 mm 3 m/s 710 mmHg 93%
06:00 +14°C° 0.1 mm 3 m/s 709 mmHg 91%
07:00 +16°C° 0.1 mm 3 m/s 709 mmHg 90%
08:00 +17°C° 0.1 mm 4 m/s 709 mmHg 84%
09:00 +17°C° 0.1 mm 5 m/s 709 mmHg 77%
10:00 +19°C° 0.1 mm 6 m/s 709 mmHg 71%
11:00 +19°C° 0.1 mm 6 m/s 709 mmHg 73%
12:00 +19°C° 0.1 mm 5 m/s 709 mmHg 75%
13:00 +17°C° 0.1 mm 5 m/s 710 mmHg 77%
14:00 +17°C° 0 mm 5 m/s 710 mmHg 76%
15:00 +18°C° 0 mm 4 m/s 710 mmHg 76%
16:00 +18°C° 0 mm 4 m/s 710 mmHg 75%
17:00 +17°C° 0.5 mm 3 m/s 710 mmHg 81%
18:00 +16°C° 0.5 mm 2 m/s 710 mmHg 87%
19:00 +14°C° 0.5 mm 2 m/s 710 mmHg 93%
20:00 +13°C° 3 mm 3 m/s 710 mmHg 94%
21:00 +12°C° 3 mm 4 m/s 710 mmHg 94%
22:00 +11°C° 3 mm 4 m/s 710 mmHg 95%
23:00 +9°C° 3.7 mm 5 m/s 709 mmHg 95%

27 Septembrie, Duminică

Timp Temperatura Precipitaţii Vânt Presiune Umiditate
00:00 +9°C° 3.7 mm 5 m/s 709 mmHg 95%
01:00 +8°C° 3.7 mm 6 m/s 709 mmHg 94%
02:00 +8°C° 0.7 mm 5 m/s 709 mmHg 94%
03:00 +8°C° 0.7 mm 5 m/s 709 mmHg 93%
04:00 +8°C° 0.7 mm 5 m/s 709 mmHg 93%
05:00 +8°C° 0.9 mm 5 m/s 709 mmHg 93%
06:00 +8°C° 0.9 mm 5 m/s 709 mmHg 94%
07:00 +8°C° 0.9 mm 5 m/s 709 mmHg 94%
08:00 +8°C° 2.7 mm 6 m/s 709 mmHg 94%
09:00 +8°C° 2.7 mm 6 m/s 709 mmHg 93%
10:00 +8°C° 2.7 mm 6 m/s 710 mmHg 92%
11:00 +8°C° 0.8 mm 6 m/s 710 mmHg 92%
12:00 +8°C° 0.8 mm 6 m/s 711 mmHg 92%
13:00 +8°C° 0.8 mm 6 m/s 711 mmHg 91%
14:00 +8°C° 1.2 mm 5 m/s 712 mmHg 91%
15:00 +8°C° 1.2 mm 5 m/s 712 mmHg 91%
16:00 +8°C° 1.2 mm 5 m/s 713 mmHg 91%
17:00 +7°C° 0.8 mm 4 m/s 713 mmHg 90%
18:00 +7°C° 0.8 mm 4 m/s 714 mmHg 90%
19:00 +7°C° 0.8 mm 4 m/s 715 mmHg 90%
20:00 +7°C° 0.1 mm 4 m/s 715 mmHg 89%
21:00 +8°C° 0.1 mm 3 m/s 716 mmHg 88%
22:00 +8°C° 0.1 mm 3 m/s 716 mmHg 87%
23:00 +8°C° 0 mm 3 m/s 717 mmHg 88%

28 Septembrie, Luni

Timp Temperatura Precipitaţii Vânt Presiune Umiditate
00:00 +7°C° 0 mm 2 m/s 717 mmHg 89%
01:00 +7°C° 0 mm 2 m/s 717 mmHg 89%
02:00 +7°C° 0 mm 2 m/s 717 mmHg 90%
03:00 +7°C° 0 mm 2 m/s 718 mmHg 90%
04:00 +7°C° 0 mm 2 m/s 718 mmHg 90%
05:00 +7°C° 0 mm 2 m/s 718 mmHg 89%
06:00 +7°C° 0 mm 2 m/s 718 mmHg 88%
07:00 +7°C° 0 mm 2 m/s 719 mmHg 87%
08:00 +9°C° 0 mm 2 m/s 719 mmHg 79%
09:00 +10°C° 0 mm 2 m/s 719 mmHg 71%
10:00 +12°C° 0 mm 2 m/s 719 mmHg 63%
11:00 +13°C° 0 mm 2 m/s 719 mmHg 58%
12:00 +14°C° 0 mm 2 m/s 719 mmHg 53%
13:00 +15°C° 0 mm 2 m/s 719 mmHg 49%
14:00 +14°C° 0 mm 2 m/s 719 mmHg 52%
15:00 +14°C° 0 mm 2 m/s 719 mmHg 56%
16:00 +13°C° 0 mm 2 m/s 719 mmHg 60%
17:00 +12°C° 0 mm 2 m/s 719 mmHg 64%
18:00 +10°C° 0 mm 2 m/s 718 mmHg 68%
19:00 +9°C° 0 mm 2 m/s 718 mmHg 72%
20:00 +10°C° 0 mm 1 m/s 719 mmHg 72%
21:00 +10°C° 0 mm 1 m/s 719 mmHg 72%
22:00 +9°C° 0 mm 0 m/s 719 mmHg 72%
23:00 +10°C° 0.5 mm 1 m/s 718 mmHg 77%

29 Septembrie, Marţi

Timp Temperatura Precipitaţii Vânt Presiune Umiditate
00:00 +9°C° 0.5 mm 1 m/s 718 mmHg 82%
01:00 +9°C° 0.5 mm 1 m/s 718 mmHg 87%
02:00 +8°C° 0.4 mm 2 m/s 718 mmHg 88%
03:00 +7°C° 0.4 mm 2 m/s 718 mmHg 90%
04:00 +7°C° 0.4 mm 2 m/s 718 mmHg 91%
05:00 +7°C° 0 mm 2 m/s 718 mmHg 89%
06:00 +8°C° 0 mm 2 m/s 718 mmHg 88%
07:00 +8°C° 0 mm 2 m/s 718 mmHg 86%
08:00 +9°C° 0 mm 3 m/s 718 mmHg 81%
09:00 +10°C° 0 mm 3 m/s 718 mmHg 76%
10:00 +11°C° 0 mm 3 m/s 718 mmHg 71%
11:00 +11°C° 0 mm 4 m/s 718 mmHg 66%
12:00 +12°C° 0 mm 4 m/s 718 mmHg 62%
13:00 +13°C° 0 mm 4 m/s 718 mmHg 58%
14:00 +13°C° 0 mm 4 m/s 718 mmHg 60%
15:00 +12°C° 0 mm 4 m/s 718 mmHg 63%
16:00 +12°C° 0 mm 4 m/s 718 mmHg 66%
17:00 +11°C° 0 mm 3 m/s 719 mmHg 71%
18:00 +10°C° 0 mm 3 m/s 719 mmHg 76%
19:00 +9°C° 0 mm 3 m/s 719 mmHg 82%
20:00 +10°C° 0 mm 4 m/s 720 mmHg 82%
21:00 +10°C° 0 mm 4 m/s 720 mmHg 81%
22:00 +9°C° 0 mm 5 m/s 720 mmHg 81%
23:00 +9°C° 0 mm 5 m/s 720 mmHg 81%
Arată mai mult